Printer-friendly version

IAU Minor Planet Center

Minor Planet Center

MPEC 2009-F51 : COMET P/2001 MD7 = 2009 F3 (LINEAR)

The following Minor Planet Electronic Circular may be linked-to from your own Web pages, but must not otherwise be redistributed electronically.


Read MPEC 2009-F50 Read MPEC 2009-F52


M.P.E.C. 2009-F51                                Issued 2009 Mar. 20, 20:12 UT

     The Minor Planet Electronic Circulars contain information on unusual
         minor planets and routine data on comets.  They are published
   on behalf of Commission 20 of the International Astronomical Union by the
          Minor Planet Center, Smithsonian Astrophysical Observatory,
                          Cambridge, MA 02138, U.S.A.

             Prepared using the Tamkin Foundation Computer Network

                              MPC@CFA.HARVARD.EDU
          URL http://www.cfa.harvard.edu/iau/mpc.html  ISSN 1523-6714

                      COMET P/2001 MD7 = 2009 F3 (LINEAR)

Observations:
    PK09F030  C2009 03 17.49833 19 43 45.97 -14 58 54.1          18.2 N EF051H06
    PK09F030  C2009 03 17.50484 19 43 46.60 -14 58 49.5          18.1 N EF051H06
    PK09F030  C2009 03 18.47991 19 45 35.79 -14 55 18.7          18.9 N EF051H06
    PK09F030  C2009 03 18.49643 19 45 37.64 -14 55 18.3          18.3 N EF051H06
    PK09F030  C2009 03 20.74117 19 49 50.08 -14 46 52.0          18.2 T EF051E16
    PK09F030  C2009 03 20.75159 19 49 51.24 -14 46 49.6          18.1 T EF051E16
    PK09F030  C2009 03 20.77107 19 49 53.43 -14 46 45.1          18.0 T EF051E16

Observer details:
E16 Grove Creek Observatory, Trunkey.  Observers G. Sostero, P. Camilleri,
    E. Guido.  0.35-m f/6.7 reflector + CCD.
H06 RAS Observatory, Mayhill.  Observers E. Guido, G. Sostero, P. Camilleri.
    0.25-m f/3.4 reflector + CCD.

Orbital elements:
    P/2001 MD7 = 2009 F3 (LINEAR)
Epoch 2001 Nov. 27.0 TT = JDT 2452240.5
T 2001 Nov. 30.13265 TT                                 MPC
q   1.2542812            (2000.0)            P               Q
n   0.12457730     Peri.  244.84771     +0.95077043     -0.25132660
a   3.9704839      Node   129.16811     +0.29186094     +0.92287437
e   0.6840987      Incl.   13.52379     -0.10417669     +0.29178388
P   7.91

